Regional Weather Roundup
Issued by NWS

Home | Current Version | Previous Version | Graphics & Text | Print | Product List | Glossary Off
Versions: 1 2 3 4 5 6 7 8 9 10 11 12 13 14 15 16 17 18 19 20 21 22 23 24 25 26 27 28 29 30 31 32 33 34 35 36 37 38 39 40 41 42 43 44 45 46 47 48 49 50

000
ASUS43 KLSX 030507
RWRMO

WEATHER SUMMARY FOR MISSOURI
NATIONAL WEATHER SERVICE SPRINGFIELD MO
1200 AM CDT FRI JUL 03 2015

NOTE: "FAIR" INDICATES FEW OR NO CLOUDS BELOW 12,000 FEET WITH NO
       SIGNIFICANT WEATHER AND/OR OBSTRUCTIONS TO VISIBILITY.
       CURRENT SKY AND/OR WEATHER CONDITIONS ARE NOT AVAILABLE FOR
       CHILLICOTHE AND FARMINGTON.

MOZ001>031-035>038-043-044-053-054-030600-
...NORTHERN AND WESTERN MISSOURI...

CITY           SKY/WX    TMP DP  RH WIND       PRES   REMARKS
KANSAS CTY INT CLOUDY    68  66  93 NE6       29.94F FOG
KANSAS C DTWN  CLOUDY    71  67  87 E8        29.93F
LEE`S SUMMIT   CLOUDY    70  65  84 E6        29.95F
ST JOSEPH      CLOUDY    67  61  81 E6        29.95F
CHILLICOTHE      N/A     67  60  78 NE3       29.98S
KIRKSVILLE     LGT RAIN  64  60  87 NE3       29.98S

$$
MOZ066>068-077>081-088>096-101>105-030600-
...SOUTHWEST MISSOURI...

CITY           SKY/WX    TMP DP  RH WIND       PRES   REMARKS
SPRINGFIELD    MOCLDY    72  69  90 N5        29.93S
JOPLIN         PTCLDY    72  70  93 CALM      29.93R

$$
MOZ032>034-039>042-045>050-055>058-069>072-030600-
...CENTRAL MISSOURI...

CITY           SKY/WX    TMP DP  RH WIND       PRES   REMARKS
COLUMBIA       CLOUDY    68  62  81 NE7       29.96R
JEFFERSON CITY CLOUDY    69  62  78 NE6       29.93R
ROLLA          CLOUDY    69  66  90 NE6       29.92S
SEDALIA        CLOUDY    70  62  76 NE6       29.96R
WHITEMAN AFB   CLOUDY    69  66  88 NE5       29.93F
WARRENSBURG    CLOUDY    70  64  83 NE5       29.94F
OSAGE BEACH    CLOUDY    70  66  88 CALM      29.93S

$$
MOZ051-052-059>065-030600-
...EAST CENTRAL MISSOURI...

CITY           SKY/WX    TMP DP  RH WIND       PRES   REMARKS
ST LOUIS INTL  CLOUDY    70  61  73 CALM      29.93R
SPIRIT OF STL  MOCLDY    69  63  81 CALM      29.92S
ST CHARLES     CLOUDY    68  63  84 N5        29.92S

$$
MOZ072>076-082>087-097>100-106>115-030600-
...SOUTH CENTRAL AND SOUTHEAST MISSOURI...

CITY           SKY/WX    TMP DP  RH WIND       PRES   REMARKS
CAPE GIRARDEAU MOCLDY    72  69  90 N5        29.88S
FARMINGTON     CLOUDY    70  66  88 NE5       29.95F
POPLAR BLUFF   MOCLDY    74  70  87 CALM      29.89R
WEST PLAINS    LGT RAIN  71  67  87 SW8       29.93S

$$


USA.gov is the U.S. government's official web portal to all federal, state and local government web resources and services.